START_TIME,STEP,MOV.,P11,t_acc.,P23,t_acc.,P27,t_acc.,A4,t_acc.
1979-07-27 18:00:22.340 ,0,1,4.,4.8,0.,4.8,0.,4.8,0.,4.8
1979-07-27 18:00:27.140 ,0,1,3.,4.8,0.,4.8,0.,4.8,0.,4.8
1979-07-27 18:00:31.940 ,0,1,8.,4.8,0.,4.8,1.,4.8,0.,4.8
1979-07-27 18:00:36.740 ,0,1,4.,4.8,0.,4.8,2.,4.8,0.,4.8
1979-07-27 18:00:41.540 ,0,1,2.,4.8,0.,4.8,0.,4.8,0.,4.8
1979-07-27 18:00:46.340 ,4,1,4.,4.8,0.,4.8,1.,4.8,0.,4.8
1979-07-27 18:00:51.140 ,4,1,2.,4.8,0.,4.8,0.,4.8,0.,4.8
1979-07-27 18:00:55.940 ,4,1,3.,4.8,0.,4.8,1.,4.8,0.,4.8
1979-07-27 18:01:00.740 ,4,1,4.,4.8,0.,4.8,0.,4.8,0.,4.8
1979-07-27 18:01:05.540 ,4,1,1.,4.8,0.,4.8,0.,4.8,0.,4.8
1979-07-27 18:01:10.340 ,7,1,4.,4.8,0.,4.8,0.,4.8,0.,4.8
1979-07-27 18:01:15.140 ,7,1,5.,4.8,0.,4.8,0.,4.8,0.,4.8
1979-07-27 18:01:19.940 ,7,1,1.,4.8,0.,4.8,0.,4.8,0.,4.8
1979-07-27 18:01:24.740 ,7,1,3.,4.8,0.,4.8,0.,4.8,0.,4.8
1979-07-27 18:01:29.540 ,7,1,2.,4.8,1.,4.8,1.,4.8,0.,4.8
1979-07-27 18:01:34.340 ,3,1,1.,4.8,0.,4.8,1.,4.8,0.,4.8
1979-07-27 18:01:39.140 ,3,1,2.,4.8,0.,4.8,0.,4.8,0.,4.8
1979-07-27 18:01:43.940 ,3,1,3.,4.8,0.,4.8,0.,4.8,0.,4.8
1979-07-27 18:01:48.740 ,3,1,5.,4.8,0.,4.8,0.,4.8,0.,4.8
1979-07-27 18:01:53.540 ,3,1,4.,4.8,0.,4.8,1.,4.8,0.,4.8
1979-07-27 18:01:58.340 ,0,1,4.,4.8,0.,4.8,0.,4.8,0.,4.8
1979-07-27 18:02:03.140 ,0,1,9.,4.8,0.,4.8,0.,4.8,0.,4.8
1979-07-27 18:02:07.940 ,0,1,2.,4.8,0.,4.8,0.,4.8,0.,4.8
1979-07-27 18:02:12.740 ,0,1,5.,4.8,0.,4.8,0.,4.8,0.,4.8
1979-07-27 18:02:17.540 ,0,1,3.,4.8,0.,4.8,0.,4.8,0.,4.8
1979-07-27 18:02:22.340 ,4,1,3.,4.8,0.,4.8,1.,4.8,0.,4.8
1979-07-27 18:02:27.140 ,4,1,3.,4.8,0.,4.8,0.,4.8,0.,4.8
1979-07-27 18:02:31.940 ,4,1,3.,4.8,0.,4.8,0.,4.8,0.,4.8
1979-07-27 18:02:36.740 ,4,1,3.,4.8,0.,4.8,0.,4.8,0.,4.8
1979-07-27 18:02:41.540 ,4,1,0.,4.8,0.,4.8,2.,4.8,0.,4.8
1979-07-27 18:02:46.340 ,7,1,3.,4.8,0.,4.8,0.,4.8,0.,4.8
1979-07-27 18:02:51.140 ,7,1,3.,4.8,0.,4.8,0.,4.8,0.,4.8
1979-07-27 18:02:55.940 ,7,1,2.,4.8,0.,4.8,0.,4.8,0.,4.8
1979-07-27 18:03:00.740 ,7,1,4.,4.8,0.,4.8,0.,4.8,0.,4.8
1979-07-27 18:03:05.540 ,7,1,7.,4.8,0.,4.8,0.,4.8,0.,4.8
1979-07-27 18:03:10.340 ,3,1,2.,4.8,0.,4.8,0.,4.8,0.,4.8
1979-07-27 18:03:15.140 ,3,1,1.,4.8,0.,4.8,0.,4.8,0.,4.8
1979-07-27 18:03:19.940 ,3,1,4.,4.8,0.,4.8,0.,4.8,0.,4.8
1979-07-27 18:03:24.740 ,3,1,2.,4.8,0.,4.8,0.,4.8,0.,4.8
1979-07-27 18:03:29.540 ,3,1,2.,4.8,0.,4.8,0.,4.8,0.,4.8
1979-07-27 18:03:34.340 ,0,1,2.,4.8,0.,4.8,0.,4.8,0.,4.8
1979-07-27 18:03:39.140 ,0,1,0.,4.8,0.,4.8,0.,4.8,0.,4.8
1979-07-27 18:03:43.940 ,0,1,7.,4.8,0.,4.8,0.,4.8,0.,4.8
1979-07-27 18:03:48.740 ,0,1,1.,4.8,0.,4.8,0.,4.8,0.,4.8
1979-07-27 18:03:53.540 ,0,1,0.,4.8,0.,4.8,1.,4.8,0.,4.8
1979-07-27 18:03:58.340 ,4,1,3.,4.8,0.,4.8,0.,4.8,0.,4.8
1979-07-27 18:04:03.140 ,4,1,1.,4.8,0.,4.8,0.,4.8,0.,4.8
1979-07-27 18:04:07.940 ,4,1,2.,4.8,0.,4.8,1.,4.8,0.,4.8
1979-07-27 18:04:12.740 ,4,1,1.,4.8,0.,4.8,0.,4.8,0.,4.8
1979-07-27 18:04:17.540 ,4,1,2.,4.8,0.,4.8,0.,4.8,0.,4.8
1979-07-27 18:04:22.340 ,7,1,3.,4.8,0.,4.8,0.,4.8,0.,4.8
1979-07-27 18:04:27.140 ,7,1,1.,4.8,1.,4.8,0.,4.8,0.,4.8
1979-07-27 18:04:31.940 ,7,1,2.,4.8,0.,4.8,0.,4.8,0.,4.8
1979-07-27 18:04:36.740 ,7,1,0.,4.8,0.,4.8,0.,4.8,0.,4.8
1979-07-27 18:04:41.540 ,7,1,0.,4.8,0.,4.8,0.,4.8,0.,4.8
1979-07-27 18:04:46.340 ,3,1,2.,4.8,0.,4.8,0.,4.8,0.,4.8
1979-07-27 18:04:51.140 ,3,1,5.,4.8,0.,4.8,0.,4.8,0.,4.8
1979-07-27 18:04:55.940 ,3,1,0.,4.8,0.,4.8,0.,4.8,0.,4.8
1979-07-27 18:05:00.740 ,3,1,2.,4.8,0.,4.8,0.,4.8,0.,4.8
1979-07-27 18:05:05.540 ,3,1,4.,4.8,0.,4.8,0.,4.8,0.,4.8
1979-07-27 18:05:10.340 ,0,1,3.,4.8,0.,4.8,0.,4.8,0.,4.8
1979-07-27 18:05:15.140 ,0,1,5.,4.8,0.,4.8,0.,4.8,0.,4.8
1979-07-27 18:05:19.940 ,0,1,4.,4.8,0.,4.8,0.,4.8,0.,4.8
1979-07-27 18:05:24.740 ,0,1,4.,4.8,0.,4.8,0.,4.8,0.,4.8
1979-07-27 18:05:29.540 ,0,1,3.,4.8,0.,4.8,0.,4.8,0.,4.8
1979-07-27 18:05:34.340 ,0,0,1.,4.8,0.,4.8,0.,4.8,0.,4.8
1979-07-27 18:05:39.140 ,0,0,6.,4.8,0.,4.8,0.,4.8,0.,4.8
1979-07-27 18:05:43.940 ,0,0,7.,4.8,0.,4.8,1.,4.8,0.,4.8
1979-07-27 18:05:48.740 ,0,0,4.,4.8,0.,4.8,0.,4.8,0.,4.8
1979-07-27 18:05:53.540 ,0,0,2.,4.8,0.,4.8,0.,4.8,0.,4.8
1979-07-27 18:05:58.340 ,0,0,3.,4.8,0.,4.8,0.,4.8,0.,4.8
1979-07-27 18:06:03.140 ,0,0,1.,4.8,0.,4.8,0.,4.8,0.,4.8
1979-07-27 18:06:07.940 ,0,0,3.,4.8,0.,4.8,0.,4.8,0.,4.8
1979-07-27 18:06:12.740 ,0,0,5.,4.8,0.,4.8,0.,4.8,0.,4.8
1979-07-27 18:06:17.540 ,0,0,3.,4.8,0.,4.8,1.,4.8,0.,4.8
1979-07-27 18:06:22.340 ,5,0,3.,4.8,0.,4.8,0.,4.8,0.,4.8
1979-07-27 18:06:27.140 ,5,0,5.,4.8,0.,4.8,0.,4.8,0.,4.8
1979-07-27 18:06:31.940 ,5,0,4.,4.8,0.,4.8,0.,4.8,0.,4.8
1979-07-27 18:06:36.740 ,5,0,3.,4.8,0.,4.8,0.,4.8,0.,4.8
1979-07-27 18:06:41.540 ,5,0,5.,4.8,0.,4.8,0.,4.8,0.,4.8
1979-07-27 18:06:46.340 ,5,0,3.,4.8,0.,4.8,1.,4.8,0.,4.8
1979-07-27 18:06:51.140 ,5,0,4.,4.8,0.,4.8,0.,4.8,0.,4.8
1979-07-27 18:06:55.940 ,5,0,2.,4.8,0.,4.8,0.,4.8,0.,4.8
1979-07-27 18:07:00.740 ,5,0,3.,4.8,0.,4.8,0.,4.8,0.,4.8
1979-07-27 18:07:05.540 ,5,0,6.,4.8,0.,4.8,0.,4.8,0.,4.8
1979-07-27 18:07:10.340 ,4,0,1.,4.8,0.,4.8,1.,4.8,0.,4.8
1979-07-27 18:07:15.140 ,4,0,9.,4.8,0.,4.8,0.,4.8,0.,4.8
1979-07-27 18:07:19.940 ,4,0,6.,4.8,0.,4.8,0.,4.8,0.,4.8
1979-07-27 18:07:24.740 ,4,0,0.,4.8,0.,4.8,0.,4.8,0.,4.8
1979-07-27 18:07:29.540 ,4,0,4.,4.8,0.,4.8,0.,4.8,0.,4.8
1979-07-27 18:07:34.340 ,4,0,2.,4.8,0.,4.8,0.,4.8,0.,4.8
1979-07-27 18:07:39.140 ,4,0,4.,4.8,0.,4.8,0.,4.8,0.,4.8
1979-07-27 18:07:43.940 ,4,0,6.,4.8,0.,4.8,0.,4.8,0.,4.8
1979-07-27 18:07:48.740 ,4,0,4.,4.8,0.,4.8,0.,4.8,0.,4.8
1979-07-27 18:07:53.540 ,4,0,3.,4.8,0.,4.8,0.,4.8,0.,4.8
1979-07-27 18:07:58.340 ,3,0,1.,4.8,0.,4.8,1.,4.8,0.,4.8
1979-07-27 18:08:03.140 ,3,0,4.,4.8,0.,4.8,0.,4.8,0.,4.8
1979-07-27 18:08:07.940 ,3,0,3.,4.8,1.,4.8,0.,4.8,0.,4.8
1979-07-27 18:08:12.740 ,3,0,2.,4.8,0.,4.8,0.,4.8,0.,4.8
1979-07-27 18:08:17.540 ,3,0,3.,4.8,0.,4.8,0.,4.8,0.,4.8
1979-07-27 18:08:22.340 ,3,0,3.,4.8,0.,4.8,0.,4.8,0.,4.8
1979-07-27 18:08:27.140 ,3,0,5.,4.8,0.,4.8,0.,4.8,0.,4.8
1979-07-27 18:08:31.940 ,3,0,0.,4.8,0.,4.8,0.,4.8,0.,4.8
1979-07-27 18:08:36.740 ,3,0,5.,4.8,0.,4.8,0.,4.8,0.,4.8
1979-07-27 18:08:41.540 ,3,0,4.,4.8,0.,4.8,0.,4.8,0.,4.8
1979-07-27 18:08:46.340 ,2,0,1.,4.8,0.,4.8,1.,4.8,0.,4.8
1979-07-27 18:08:51.140 ,2,0,1.,4.8,0.,4.8,1.,4.8,0.,4.8
1979-07-27 18:08:55.940 ,2,0,2.,4.8,0.,4.8,0.,4.8,0.,4.8
1979-07-27 18:09:00.740 ,2,0,1.,4.8,0.,4.8,0.,4.8,0.,4.8
1979-07-27 18:09:05.540 ,2,0,5.,4.8,1.,4.8,0.,4.8,0.,4.8
1979-07-27 18:09:10.340 ,2,0,1.,4.8,0.,4.8,0.,4.8,0.,4.8
1979-07-27 18:09:15.140 ,2,0,3.,4.8,0.,4.8,0.,4.8,0.,4.8
1979-07-27 18:09:19.940 ,2,0,3.,4.8,0.,4.8,0.,4.8,0.,4.8
1979-07-27 18:09:24.740 ,2,0,3.,4.8,0.,4.8,1.,4.8,0.,4.8
1979-07-27 18:09:29.540 ,2,0,2.,4.8,0.,4.8,0.,4.8,0.,4.8
1979-07-27 18:09:34.340 ,1,0,0.,4.8,0.,4.8,0.,4.8,0.,4.8
1979-07-27 18:09:39.140 ,1,0,1.,4.8,0.,4.8,0.,4.8,0.,4.8
1979-07-27 18:09:43.940 ,1,0,4.,4.8,0.,4.8,0.,4.8,0.,4.8
1979-07-27 18:09:48.740 ,1,0,2.,4.8,0.,4.8,0.,4.8,0.,4.8
1979-07-27 18:09:53.540 ,1,0,1.,4.8,0.,4.8,0.,4.8,0.,4.8
1979-07-27 18:09:58.340 ,1,0,6.,4.8,0.,4.8,0.,4.8,0.,4.8
1979-07-27 18:10:03.140 ,1,0,2.,4.8,0.,4.8,0.,4.8,0.,4.8
1979-07-27 18:10:07.940 ,1,0,2.,4.8,0.,4.8,0.,4.8,0.,4.8
1979-07-27 18:10:12.740 ,1,0,3.,4.8,0.,4.8,0.,4.8,0.,4.8
1979-07-27 18:10:17.540 ,1,0,2.,4.8,0.,4.8,0.,4.8,0.,4.8
1979-07-27 18:10:22.340 ,0,0,6.,4.8,0.,4.8,0.,4.8,0.,4.8
1979-07-27 18:10:27.140 ,0,0,2.,4.8,0.,4.8,1.,4.8,0.,4.8
1979-07-27 18:10:31.940 ,0,0,5.,4.8,0.,4.8,0.,4.8,0.,4.8
1979-07-27 18:10:36.740 ,0,0,3.,4.8,0.,4.8,0.,4.8,0.,4.8
1979-07-27 18:10:41.540 ,0,0,2.,4.8,0.,4.8,0.,4.8,0.,4.8
1979-07-27 18:10:46.340 ,0,0,0.,4.8,0.,4.8,0.,4.8,0.,4.8
1979-07-27 18:10:51.140 ,0,0,6.,4.8,0.,4.8,0.,4.8,0.,4.8
1979-07-27 18:10:55.940 ,0,0,4.,4.8,0.,4.8,1.,4.8,0.,4.8
1979-07-27 18:11:00.740 ,0,0,5.,4.8,0.,4.8,0.,4.8,0.,4.8
1979-07-27 18:11:05.540 ,0,0,3.,4.8,0.,4.8,0.,4.8,0.,4.8
1979-07-27 18:11:10.340 ,0,0,3.,4.8,0.,4.8,0.,4.8,0.,4.8
1979-07-27 18:11:15.140 ,0,0,7.,4.8,0.,4.8,0.,4.8,0.,4.8
1979-07-27 18:11:19.940 ,0,0,1.,4.8,0.,4.8,0.,4.8,0.,4.8
1979-07-27 18:11:24.740 ,0,0,2.,4.8,0.,4.8,0.,4.8,0.,4.8
1979-07-27 18:11:29.540 ,0,0,8.,4.8,0.,4.8,0.,4.8,0.,4.8
1979-07-27 18:11:34.340 ,0,0,6.,4.8,0.,4.8,0.,4.8,0.,4.8
1979-07-27 18:11:39.140 ,0,0,5.,4.8,0.,4.8,0.,4.8,0.,4.8
1979-07-27 18:11:43.940 ,0,0,3.,4.8,0.,4.8,0.,4.8,0.,4.8
1979-07-27 18:11:48.740 ,0,0,11.,4.8,0.,4.8,0.,4.8,0.,4.8
1979-07-27 18:11:53.540 ,0,0,7.,4.8,0.,4.8,0.,4.8,0.,4.8
1979-07-27 18:11:58.340 ,1,0,7.,4.8,0.,4.8,0.,4.8,0.,4.8
1979-07-27 18:12:03.140 ,1,0,4.,4.8,0.,4.8,0.,4.8,1.,4.8
1979-07-27 18:12:07.940 ,1,0,4.,4.8,0.,4.8,1.,4.8,0.,4.8
1979-07-27 18:12:12.740 ,1,0,1.,4.8,0.,4.8,0.,4.8,0.,4.8
1979-07-27 18:12:17.540 ,1,0,3.,4.8,0.,4.8,0.,4.8,0.,4.8
1979-07-27 18:12:22.340 ,1,0,5.,4.8,0.,4.8,0.,4.8,0.,4.8
1979-07-27 18:12:27.140 ,1,0,4.,4.8,0.,4.8,0.,4.8,0.,4.8
1979-07-27 18:12:31.940 ,1,0,4.,4.8,0.,4.8,0.,4.8,0.,4.8
1979-07-27 18:12:36.740 ,1,0,4.,4.8,0.,4.8,0.,4.8,0.,4.8
1979-07-27 18:12:41.540 ,1,0,4.,4.8,0.,4.8,0.,4.8,0.,4.8
1979-07-27 18:12:46.340 ,2,0,3.,4.8,0.,4.8,1.,4.8,0.,4.8
1979-07-27 18:12:51.140 ,2,0,3.,4.8,0.,4.8,0.,4.8,0.,4.8
1979-07-27 18:12:55.940 ,2,0,2.,4.8,0.,4.8,0.,4.8,0.,4.8
1979-07-27 18:13:00.740 ,2,0,5.,4.8,0.,4.8,0.,4.8,0.,4.8
1979-07-27 18:13:05.540 ,2,0,2.,4.8,0.,4.8,0.,4.8,0.,4.8
1979-07-27 18:13:10.340 ,2,0,4.,4.8,0.,4.8,0.,4.8,0.,4.8
1979-07-27 18:13:15.140 ,2,0,0.,4.8,0.,4.8,0.,4.8,0.,4.8
1979-07-27 18:13:19.940 ,2,0,5.,4.8,0.,4.8,0.,4.8,0.,4.8
1979-07-27 18:13:24.740 ,2,0,6.,4.8,0.,4.8,0.,4.8,0.,4.8
1979-07-27 18:13:29.540 ,2,0,0.,4.8,1.,4.8,0.,4.8,0.,4.8
1979-07-27 18:13:34.340 ,3,0,2.,4.8,0.,4.8,0.,4.8,0.,4.8
1979-07-27 18:13:39.140 ,3,0,3.,4.8,0.,4.8,0.,4.8,0.,4.8
1979-07-27 18:13:43.940 ,3,0,1.,4.8,0.,4.8,0.,4.8,0.,4.8
1979-07-27 18:13:48.740 ,3,0,4.,4.8,0.,4.8,0.,4.8,0.,4.8
1979-07-27 18:13:53.540 ,3,0,1.,4.8,0.,4.8,0.,4.8,0.,4.8
1979-07-27 18:13:58.340 ,3,0,4.,4.8,0.,4.8,0.,4.8,0.,4.8
1979-07-27 18:14:03.140 ,3,0,2.,4.8,0.,4.8,1.,4.8,0.,4.8
1979-07-27 18:14:07.940 ,3,0,1.,4.8,0.,4.8,0.,4.8,0.,4.8
1979-07-27 18:14:12.740 ,3,0,3.,4.8,1.,4.8,0.,4.8,0.,4.8
1979-07-27 18:14:17.540 ,3,0,2.,4.8,0.,4.8,1.,4.8,0.,4.8
1979-07-27 18:14:22.340 ,4,0,2.,4.8,0.,4.8,0.,4.8,0.,4.8
1979-07-27 18:14:27.140 ,4,0,2.,4.8,0.,4.8,0.,4.8,0.,4.8
1979-07-27 18:14:31.940 ,4,0,4.,4.8,0.,4.8,0.,4.8,0.,4.8
1979-07-27 18:14:36.740 ,4,0,3.,4.8,0.,4.8,0.,4.8,0.,4.8
1979-07-27 18:14:41.540 ,4,0,3.,4.8,0.,4.8,0.,4.8,0.,4.8
1979-07-27 18:14:46.340 ,4,0,1.,4.8,1.,4.8,0.,4.8,0.,4.8
1979-07-27 18:14:51.140 ,4,0,3.,4.8,0.,4.8,0.,4.8,0.,4.8
1979-07-27 18:14:55.940 ,4,0,1.,4.8,0.,4.8,0.,4.8,0.,4.8
1979-07-27 18:15:00.740 ,4,0,3.,4.8,1.,4.8,0.,4.8,0.,4.8
1979-07-27 18:15:05.540 ,4,0,1.,4.8,0.,4.8,0.,4.8,0.,4.8
1979-07-27 18:15:10.340 ,5,0,1.,4.8,0.,4.8,0.,4.8,0.,4.8
1979-07-27 18:15:15.140 ,5,0,2.,4.8,0.,4.8,0.,4.8,0.,4.8
1979-07-27 18:15:19.940 ,5,0,1.,4.8,0.,4.8,0.,4.8,0.,4.8
1979-07-27 18:15:24.740 ,5,0,4.,4.8,0.,4.8,0.,4.8,0.,4.8
1979-07-27 18:15:29.540 ,5,0,5.,4.8,0.,4.8,0.,4.8,0.,4.8
1979-07-27 18:15:34.340 ,5,0,4.,4.8,0.,4.8,0.,4.8,0.,4.8
1979-07-27 18:15:39.140 ,5,0,2.,4.8,0.,4.8,0.,4.8,0.,4.8
1979-07-27 18:15:43.940 ,5,0,5.,4.8,0.,4.8,0.,4.8,0.,4.8
1979-07-27 18:15:48.740 ,5,0,1.,4.8,0.,4.8,0.,4.8,0.,4.8
1979-07-27 18:15:53.540 ,5,0,5.,4.8,0.,4.8,0.,4.8,0.,4.8
1979-07-27 18:15:58.340 ,6,0,3.,4.8,0.,4.8,0.,4.8,0.,4.8
1979-07-27 18:16:03.140 ,6,0,2.,4.8,0.,4.8,0.,4.8,0.,4.8
1979-07-27 18:16:07.940 ,6,0,1.,4.8,0.,4.8,0.,4.8,0.,4.8
1979-07-27 18:16:12.740 ,6,0,4.,4.8,0.,4.8,0.,4.8,0.,4.8
1979-07-27 18:16:17.540 ,6,0,4.,4.8,0.,4.8,0.,4.8,0.,4.8
1979-07-27 18:16:22.340 ,6,0,5.,4.8,0.,4.8,0.,4.8,0.,4.8
1979-07-27 18:16:27.140 ,6,0,5.,4.8,0.,4.8,0.,4.8,0.,4.8
1979-07-27 18:16:31.940 ,6,0,5.,4.8,0.,4.8,0.,4.8,0.,4.8
1979-07-27 18:16:36.740 ,6,0,5.,4.8,0.,4.8,0.,4.8,0.,4.8
1979-07-27 18:16:41.540 ,6,0,3.,4.8,0.,4.8,0.,4.8,0.,4.8
1979-07-27 18:16:46.340 ,7,0,6.,4.8,0.,4.8,1.,4.8,0.,4.8
1979-07-27 18:16:51.140 ,7,0,5.,4.8,0.,4.8,0.,4.8,0.,4.8
1979-07-27 18:16:55.940 ,7,0,5.,4.8,0.,4.8,0.,4.8,0.,4.8
1979-07-27 18:17:00.740 ,7,0,1.,4.8,0.,4.8,0.,4.8,0.,4.8
1979-07-27 18:17:05.540 ,7,0,0.,4.8,0.,4.8,0.,4.8,0.,4.8
1979-07-27 18:17:10.340 ,7,0,4.,4.8,0.,4.8,0.,4.8,0.,4.8
1979-07-27 18:17:15.140 ,7,0,3.,4.8,0.,4.8,0.,4.8,0.,4.8
1979-07-27 18:17:19.940 ,7,0,5.,4.8,0.,4.8,0.,4.8,0.,4.8
1979-07-27 18:17:24.740 ,7,0,8.,4.8,0.,4.8,0.,4.8,0.,4.8
1979-07-27 18:17:29.540 ,7,0,2.,4.8,0.,4.8,0.,4.8,0.,4.8
1979-07-27 18:17:34.340 ,7,0,2.,4.8,0.,4.8,0.,4.8,0.,4.8
1979-07-27 18:17:39.140 ,7,0,1.,4.8,0.,4.8,0.,4.8,0.,4.8
1979-07-27 18:17:43.940 ,7,0,3.,4.8,1.,4.8,0.,4.8,0.,4.8
1979-07-27 18:17:48.740 ,7,0,3.,4.8,0.,4.8,0.,4.8,0.,4.8
1979-07-27 18:17:53.540 ,7,0,3.,4.8,0.,4.8,1.,4.8,0.,4.8
1979-07-27 18:17:58.340 ,7,0,3.,4.8,0.,4.8,0.,4.8,0.,4.8
1979-07-27 18:18:03.140 ,7,0,5.,4.8,0.,4.8,0.,4.8,0.,4.8
1979-07-27 18:18:07.940 ,7,0,4.,4.8,0.,4.8,0.,4.8,0.,4.8
1979-07-27 18:18:12.740 ,7,0,6.,4.8,0.,4.8,0.,4.8,0.,4.8
1979-07-27 18:18:17.540 ,7,0,9.,4.8,0.,4.8,0.,4.8,0.,4.8
1979-07-27 18:18:22.340 ,6,0,1.,4.8,0.,4.8,0.,4.8,0.,4.8
1979-07-27 18:18:27.140 ,6,0,6.,4.8,0.,4.8,0.,4.8,0.,4.8
1979-07-27 18:18:31.940 ,6,0,5.,4.8,0.,4.8,0.,4.8,0.,4.8
1979-07-27 18:18:36.740 ,6,0,3.,4.8,0.,4.8,0.,4.8,0.,4.8
1979-07-27 18:18:41.540 ,6,0,2.,4.8,0.,4.8,0.,4.8,0.,4.8
1979-07-27 18:18:46.340 ,6,0,3.,4.8,0.,4.8,0.,4.8,0.,4.8
1979-07-27 18:18:51.140 ,6,0,10.,4.8,0.,4.8,0.,4.8,0.,4.8
1979-07-27 18:18:55.940 ,6,0,7.,4.8,0.,4.8,0.,4.8,0.,4.8
1979-07-27 18:19:00.740 ,6,0,4.,4.8,0.,4.8,0.,4.8,0.,4.8
1979-07-27 18:19:05.540 ,6,0,3.,4.8,0.,4.8,0.,4.8,0.,4.8
1979-07-27 18:19:10.340 ,5,0,1.,4.8,1.,4.8,0.,4.8,0.,4.8
1979-07-27 18:19:15.140 ,5,0,7.,4.8,0.,4.8,0.,4.8,0.,4.8
1979-07-27 18:19:19.940 ,5,0,3.,4.8,0.,4.8,0.,4.8,0.,4.8
1979-07-27 18:19:24.740 ,5,0,3.,4.8,0.,4.8,0.,4.8,0.,4.8
1979-07-27 18:19:29.540 ,5,0,2.,4.8,0.,4.8,0.,4.8,0.,4.8
1979-07-27 18:19:34.340 ,5,0,1.,4.8,0.,4.8,0.,4.8,0.,4.8
1979-07-27 18:19:39.140 ,5,0,3.,4.8,0.,4.8,0.,4.8,0.,4.8
1979-07-27 18:19:43.940 ,5,0,2.,4.8,0.,4.8,0.,4.8,0.,4.8
1979-07-27 18:19:48.740 ,5,0,1.,4.8,0.,4.8,0.,4.8,0.,4.8
1979-07-27 18:19:53.540 ,5,0,3.,4.8,0.,4.8,0.,4.8,0.,4.8
1979-07-27 18:19:58.340 ,4,0,3.,4.8,0.,4.8,0.,4.8,0.,4.8
1979-07-27 18:20:03.140 ,4,0,5.,4.8,0.,4.8,0.,4.8,0.,4.8
1979-07-27 18:20:07.940 ,4,0,3.,4.8,0.,4.8,0.,4.8,0.,4.8
1979-07-27 18:20:12.740 ,4,0,1.,4.8,0.,4.8,0.,4.8,0.,4.8
1979-07-27 18:20:17.540 ,4,0,1.,4.8,0.,4.8,1.,4.8,0.,4.8
1979-07-27 18:20:22.340 ,4,0,5.,4.8,0.,4.8,0.,4.8,0.,4.8
1979-07-27 18:20:27.140 ,4,0,3.,4.8,0.,4.8,0.,4.8,0.,4.8
1979-07-27 18:20:31.940 ,4,0,1.,4.8,0.,4.8,2.,4.8,0.,4.8
1979-07-27 18:20:36.740 ,4,0,6.,4.8,0.,4.8,0.,4.8,0.,4.8
1979-07-27 18:20:41.540 ,4,0,3.,4.8,0.,4.8,0.,4.8,0.,4.8
1979-07-27 18:20:46.340 ,3,0,3.,4.8,0.,4.8,0.,4.8,0.,4.8
1979-07-27 18:20:51.140 ,3,0,5.,4.8,0.,4.8,0.,4.8,0.,4.8
1979-07-27 18:20:55.940 ,3,0,6.,4.8,2.,4.8,0.,4.8,0.,4.8
1979-07-27 18:21:00.740 ,3,0,4.,4.8,0.,4.8,1.,4.8,0.,4.8
1979-07-27 18:21:05.540 ,3,0,5.,4.8,0.,4.8,0.,4.8,0.,4.8
1979-07-27 18:21:10.340 ,3,0,8.,4.8,0.,4.8,0.,4.8,0.,4.8
1979-07-27 18:21:15.140 ,3,0,4.,4.8,0.,4.8,0.,4.8,0.,4.8
1979-07-27 18:21:19.940 ,3,0,5.,4.8,0.,4.8,0.,4.8,0.,4.8
1979-07-27 18:21:24.740 ,3,0,1.,4.8,0.,4.8,0.,4.8,0.,4.8
1979-07-27 18:21:29.540 ,3,0,6.,4.8,0.,4.8,0.,4.8,0.,4.8
1979-07-27 18:21:34.340 ,2,0,6.,4.8,0.,4.8,0.,4.8,0.,4.8
1979-07-27 18:21:39.140 ,2,0,3.,4.8,0.,4.8,0.,4.8,0.,4.8
1979-07-27 18:21:43.940 ,2,0,2.,4.8,0.,4.8,0.,4.8,0.,4.8
1979-07-27 18:21:48.740 ,2,0,2.,4.8,0.,4.8,0.,4.8,0.,4.8
1979-07-27 18:21:53.540 ,2,0,3.,4.8,0.,4.8,0.,4.8,0.,4.8
1979-07-27 18:21:58.340 ,2,0,6.,4.8,1.,4.8,1.,4.8,0.,4.8
1979-07-27 18:22:03.140 ,2,0,8.,4.8,0.,4.8,0.,4.8,0.,4.8
1979-07-27 18:22:07.940 ,2,0,3.,4.8,0.,4.8,0.,4.8,0.,4.8
1979-07-27 18:22:12.740 ,2,0,4.,4.8,0.,4.8,0.,4.8,0.,4.8
1979-07-27 18:22:17.540 ,2,0,3.,4.8,0.,4.8,0.,4.8,0.,4.8
1979-07-27 18:22:22.340 ,1,0,5.,4.8,0.,4.8,1.,4.8,0.,4.8
1979-07-27 18:22:27.140 ,1,0,3.,4.8,0.,4.8,0.,4.8,0.,4.8
1979-07-27 18:22:31.940 ,1,0,4.,4.8,0.,4.8,0.,4.8,0.,4.8
1979-07-27 18:22:36.740 ,1,0,5.,4.8,0.,4.8,0.,4.8,0.,4.8
1979-07-27 18:22:41.540 ,1,0,11.,4.8,0.,4.8,0.,4.8,0.,4.8
1979-07-27 18:22:46.340 ,1,0,4.,4.8,0.,4.8,0.,4.8,0.,4.8
1979-07-27 18:22:51.140 ,1,0,7.,4.8,0.,4.8,0.,4.8,0.,4.8
1979-07-27 18:22:55.940 ,1,0,6.,4.8,0.,4.8,0.,4.8,0.,4.8
1979-07-27 18:23:00.740 ,1,0,4.,4.8,0.,4.8,0.,4.8,0.,4.8
1979-07-27 18:23:05.540 ,1,0,1.,4.8,0.,4.8,1.,4.8,0.,4.8
1979-07-27 18:23:10.340 ,0,0,4.,4.8,0.,4.8,0.,4.8,0.,4.8
1979-07-27 18:23:15.140 ,0,0,9.,4.8,0.,4.8,0.,4.8,0.,4.8
1979-07-27 18:23:19.940 ,0,0,7.,4.8,0.,4.8,1.,4.8,0.,4.8
1979-07-27 18:23:24.740 ,0,0,2.,4.8,0.,4.8,0.,4.8,0.,4.8
1979-07-27 18:23:29.540 ,0,0,3.,4.8,0.,4.8,0.,4.8,0.,4.8
1979-07-27 18:23:34.340 ,0,0,3.,4.8,0.,4.8,0.,4.8,0.,4.8
1979-07-27 18:23:39.140 ,0,0,5.,4.8,1.,4.8,0.,4.8,0.,4.8
1979-07-27 18:23:43.940 ,0,0,2.,4.8,0.,4.8,0.,4.8,0.,4.8
1979-07-27 18:23:48.740 ,0,0,3.,4.8,0.,4.8,0.,4.8,0.,4.8
1979-07-27 18:23:53.540 ,0,0,6.,4.8,0.,4.8,0.,4.8,0.,4.8
1979-07-27 18:23:58.340 ,0,0,4.,4.8,1.,4.8,0.,4.8,0.,4.8
1979-07-27 18:24:03.140 ,0,0,1.,4.8,0.,4.8,0.,4.8,0.,4.8
1979-07-27 18:24:07.940 ,0,0,5.,4.8,0.,4.8,0.,4.8,0.,4.8
1979-07-27 18:24:12.740 ,0,0,2.,4.8,0.,4.8,0.,4.8,0.,4.8
1979-07-27 18:24:17.540 ,0,0,2.,4.8,0.,4.8,1.,4.8,0.,4.8
1979-07-27 18:24:22.340 ,0,0,4.,4.8,0.,4.8,0.,4.8,0.,4.8
1979-07-27 18:24:27.140 ,0,0,6.,4.8,0.,4.8,0.,4.8,0.,4.8
1979-07-27 18:24:31.940 ,0,0,5.,4.8,0.,4.8,0.,4.8,0.,4.8
1979-07-27 18:24:36.740 ,0,0,5.,4.8,0.,4.8,0.,4.8,0.,4.8
1979-07-27 18:24:41.540 ,0,0,2.,4.8,0.,4.8,0.,4.8,0.,4.8
1979-07-27 18:24:46.340 ,1,0,4.,4.8,0.,4.8,0.,4.8,0.,4.8
1979-07-27 18:24:51.140 ,1,0,2.,4.8,0.,4.8,1.,4.8,0.,4.8
1979-07-27 18:24:55.940 ,1,0,4.,4.8,0.,4.8,1.,4.8,0.,4.8
1979-07-27 18:25:00.740 ,1,0,0.,4.8,0.,4.8,0.,4.8,0.,4.8
1979-07-27 18:25:05.540 ,1,0,5.,4.8,0.,4.8,0.,4.8,0.,4.8
1979-07-27 18:25:10.340 ,1,0,4.,4.8,0.,4.8,1.,4.8,0.,4.8
1979-07-27 18:25:15.140 ,1,0,2.,4.8,0.,4.8,0.,4.8,0.,4.8
1979-07-27 18:25:19.940 ,1,0,3.,4.8,0.,4.8,0.,4.8,0.,4.8
1979-07-27 18:25:24.740 ,1,0,4.,4.8,0.,4.8,0.,4.8,0.,4.8
1979-07-27 18:25:29.540 ,1,0,3.,4.8,0.,4.8,0.,4.8,0.,4.8
1979-07-27 18:25:34.340 ,2,0,6.,4.8,0.,4.8,0.,4.8,0.,4.8
1979-07-27 18:25:39.140 ,2,0,6.,4.8,0.,4.8,0.,4.8,0.,4.8
1979-07-27 18:25:43.940 ,2,0,2.,4.8,0.,4.8,0.,4.8,0.,4.8
1979-07-27 18:25:48.740 ,2,0,5.,4.8,0.,4.8,0.,4.8,0.,4.8
1979-07-27 18:25:53.540 ,2,0,2.,4.8,0.,4.8,0.,4.8,0.,4.8
1979-07-27 18:25:58.340 ,2,0,3.,4.8,0.,4.8,0.,4.8,0.,4.8
1979-07-27 18:26:03.140 ,2,0,2.,4.8,0.,4.8,0.,4.8,0.,4.8
1979-07-27 18:26:07.940 ,2,0,8.,4.8,0.,4.8,0.,4.8,0.,4.8
1979-07-27 18:26:12.740 ,2,0,0.,4.8,0.,4.8,0.,4.8,0.,4.8
1979-07-27 18:26:17.540 ,2,0,3.,4.8,0.,4.8,0.,4.8,0.,4.8
1979-07-27 18:26:22.340 ,3,0,5.,4.8,0.,4.8,0.,4.8,0.,4.8
1979-07-27 18:26:27.140 ,3,0,6.,4.8,0.,4.8,0.,4.8,0.,4.8
1979-07-27 18:26:31.940 ,3,0,6.,4.8,0.,4.8,0.,4.8,0.,4.8
1979-07-27 18:26:36.740 ,3,0,8.,4.8,0.,4.8,0.,4.8,0.,4.8
1979-07-27 18:26:41.540 ,3,0,2.,4.8,0.,4.8,0.,4.8,0.,4.8
1979-07-27 18:26:46.340 ,3,0,1.,4.8,0.,4.8,0.,4.8,0.,4.8
1979-07-27 18:26:51.140 ,3,0,3.,4.8,0.,4.8,0.,4.8,0.,4.8
1979-07-27 18:26:55.940 ,3,0,7.,4.8,0.,4.8,1.,4.8,0.,4.8
1979-07-27 18:27:00.740 ,3,0,1.,4.8,1.,4.8,1.,4.8,0.,4.8
1979-07-27 18:27:05.540 ,3,0,3.,4.8,0.,4.8,0.,4.8,0.,4.8
1979-07-27 18:27:10.340 ,4,0,4.,4.8,0.,4.8,0.,4.8,0.,4.8
1979-07-27 18:27:15.140 ,4,0,4.,4.8,0.,4.8,0.,4.8,0.,4.8
1979-07-27 18:27:19.940 ,4,0,3.,4.8,0.,4.8,0.,4.8,0.,4.8
1979-07-27 18:27:24.740 ,4,0,1.,4.8,0.,4.8,0.,4.8,0.,4.8
1979-07-27 18:27:29.540 ,4,0,1.,4.8,0.,4.8,0.,4.8,0.,4.8
1979-07-27 18:27:34.340 ,4,0,3.,4.8,0.,4.8,0.,4.8,0.,4.8
1979-07-27 18:27:39.140 ,4,0,6.,4.8,0.,4.8,0.,4.8,0.,4.8
1979-07-27 18:27:43.940 ,4,0,5.,4.8,0.,4.8,0.,4.8,0.,4.8
1979-07-27 18:27:48.740 ,4,0,5.,4.8,0.,4.8,0.,4.8,0.,4.8
1979-07-27 18:27:53.540 ,4,0,2.,4.8,0.,4.8,0.,4.8,0.,4.8
1979-07-27 18:27:58.340 ,5,0,3.,4.8,0.,4.8,1.,4.8,0.,4.8
1979-07-27 18:28:03.140 ,5,0,4.,4.8,0.,4.8,0.,4.8,0.,4.8
1979-07-27 18:28:07.940 ,5,0,2.,4.8,0.,4.8,0.,4.8,0.,4.8
1979-07-27 18:28:12.740 ,5,0,2.,4.8,0.,4.8,0.,4.8,0.,4.8
1979-07-27 18:28:17.540 ,5,0,5.,4.8,0.,4.8,1.,4.8,0.,4.8
1979-07-27 18:28:22.340 ,5,0,1.,4.8,0.,4.8,0.,4.8,0.,4.8
1979-07-27 18:28:27.140 ,5,0,1.,4.8,0.,4.8,0.,4.8,0.,4.8
1979-07-27 18:28:31.940 ,5,0,4.,4.8,1.,4.8,0.,4.8,0.,4.8
1979-07-27 18:28:36.740 ,5,0,2.,4.8,0.,4.8,0.,4.8,0.,4.8
1979-07-27 18:28:41.540 ,5,0,1.,4.8,0.,4.8,0.,4.8,0.,4.8
1979-07-27 18:28:46.340 ,6,0,4.,4.8,0.,4.8,0.,4.8,0.,4.8
1979-07-27 18:28:51.140 ,6,0,4.,4.8,0.,4.8,0.,4.8,0.,4.8
1979-07-27 18:28:55.940 ,6,0,3.,4.8,0.,4.8,0.,4.8,0.,4.8
1979-07-27 18:29:00.740 ,6,0,3.,4.8,0.,4.8,0.,4.8,0.,4.8
1979-07-27 18:29:05.540 ,6,0,3.,4.8,0.,4.8,0.,4.8,0.,4.8
1979-07-27 18:29:10.340 ,6,0,5.,4.8,0.,4.8,0.,4.8,0.,4.8
1979-07-27 18:29:15.140 ,6,0,1.,4.8,0.,4.8,0.,4.8,0.,4.8
1979-07-27 18:29:19.940 ,6,0,2.,4.8,0.,4.8,0.,4.8,0.,4.8
1979-07-27 18:29:24.740 ,6,0,5.,4.8,2.,4.8,0.,4.8,0.,4.8
1979-07-27 18:29:29.540 ,6,0,4.,4.8,0.,4.8,0.,4.8,0.,4.8
1979-07-27 18:29:34.340 ,7,0,4.,4.8,0.,4.8,0.,4.8,0.,4.8
1979-07-27 18:29:39.140 ,7,0,1.,4.8,0.,4.8,0.,4.8,0.,4.8
1979-07-27 18:29:43.940 ,7,0,4.,4.8,0.,4.8,0.,4.8,0.,4.8
1979-07-27 18:29:48.740 ,7,0,4.,4.8,0.,4.8,1.,4.8,0.,4.8
1979-07-27 18:29:53.540 ,7,0,6.,4.8,0.,4.8,0.,4.8,0.,4.8
1979-07-27 18:29:58.340 ,7,0,6.,4.8,0.,4.8,0.,4.8,0.,4.8
1979-07-27 18:30:03.140 ,7,0,6.,4.8,0.,4.8,1.,4.8,0.,4.8
1979-07-27 18:30:07.940 ,7,0,5.,4.8,0.,4.8,0.,4.8,0.,4.8
1979-07-27 18:30:12.740 ,7,0,5.,4.8,0.,4.8,0.,4.8,0.,4.8
1979-07-27 18:30:17.540 ,7,0,4.,4.8,0.,4.8,0.,4.8,0.,4.8
1979-07-27 18:30:22.340 ,7,0,5.,4.8,0.,4.8,0.,4.8,0.,4.8
1979-07-27 18:30:27.140 ,7,0,3.,4.8,0.,4.8,0.,4.8,0.,4.8
1979-07-27 18:30:31.940 ,7,0,1.,4.8,0.,4.8,0.,4.8,0.,4.8
1979-07-27 18:30:36.740 ,7,0,6.,4.8,0.,4.8,0.,4.8,0.,4.8
1979-07-27 18:30:41.540 ,7,0,5.,4.8,0.,4.8,0.,4.8,0.,4.8
1979-07-27 18:30:46.340 ,7,0,2.,4.8,0.,4.8,0.,4.8,0.,4.8
1979-07-27 18:30:51.140 ,7,0,0.,4.8,0.,4.8,0.,4.8,0.,4.8
1979-07-27 18:30:55.940 ,7,0,5.,4.8,0.,4.8,0.,4.8,0.,4.8
1979-07-27 18:31:00.740 ,7,0,6.,4.8,0.,4.8,0.,4.8,0.,4.8
1979-07-27 18:31:05.540 ,7,0,2.,4.8,0.,4.8,0.,4.8,0.,4.8
1979-07-27 18:31:10.340 ,6,0,4.,4.8,0.,4.8,0.,4.8,0.,4.8
1979-07-27 18:31:15.140 ,6,0,1.,4.8,0.,4.8,0.,4.8,0.,4.8
1979-07-27 18:31:19.940 ,6,0,6.,4.8,0.,4.8,0.,4.8,0.,4.8
1979-07-27 18:31:24.740 ,6,0,3.,4.8,0.,4.8,0.,4.8,0.,4.8
1979-07-27 18:31:29.540 ,6,0,3.,4.8,0.,4.8,1.,4.8,0.,4.8
1979-07-27 18:31:34.340 ,6,0,2.,4.8,0.,4.8,0.,4.8,0.,4.8
1979-07-27 18:31:39.140 ,6,0,6.,4.8,0.,4.8,0.,4.8,0.,4.8
1979-07-27 18:31:43.940 ,6,0,4.,4.8,0.,4.8,0.,4.8,0.,4.8
1979-07-27 18:31:48.740 ,6,0,0.,4.8,0.,4.8,0.,4.8,0.,4.8
1979-07-27 18:31:53.540 ,6,0,1.,4.8,0.,4.8,0.,4.8,0.,4.8
1979-07-27 18:31:58.340 ,5,0,5.,4.8,0.,4.8,0.,4.8,0.,4.8
1979-07-27 18:32:03.140 ,5,0,4.,4.8,0.,4.8,0.,4.8,0.,4.8
1979-07-27 18:32:07.940 ,5,0,4.,4.8,1.,4.8,1.,4.8,0.,4.8
1979-07-27 18:32:12.740 ,5,0,4.,4.8,0.,4.8,0.,4.8,0.,4.8
1979-07-27 18:32:17.540 ,5,0,3.,4.8,0.,4.8,0.,4.8,0.,4.8
1979-07-27 18:32:22.340 ,5,0,8.,4.8,0.,4.8,0.,4.8,0.,4.8
1979-07-27 18:32:27.140 ,5,0,4.,4.8,0.,4.8,0.,4.8,0.,4.8
1979-07-27 18:32:31.940 ,5,0,6.,4.8,0.,4.8,0.,4.8,0.,4.8
1979-07-27 18:32:36.740 ,5,0,4.,4.8,0.,4.8,0.,4.8,0.,4.8
1979-07-27 18:32:41.540 ,5,0,2.,4.8,0.,4.8,1.,4.8,0.,4.8
1979-07-27 18:32:46.340 ,4,0,2.,4.8,0.,4.8,0.,4.8,0.,4.8
1979-07-27 18:32:51.140 ,4,0,3.,4.8,0.,4.8,0.,4.8,0.,4.8
1979-07-27 18:32:55.940 ,4,0,3.,4.8,0.,4.8,0.,4.8,0.,4.8
1979-07-27 18:33:00.740 ,4,0,4.,4.8,0.,4.8,0.,4.8,0.,4.8
1979-07-27 18:33:05.540 ,4,0,3.,4.8,0.,4.8,0.,4.8,0.,4.8
1979-07-27 18:33:10.340 ,4,0,1.,4.8,0.,4.8,0.,4.8,0.,4.8
1979-07-27 18:33:15.140 ,4,0,3.,4.8,1.,4.8,0.,4.8,0.,4.8